| time (UTC) | temp C | wind direction | speed KPH | gust KPH | rain 1hr cm | rain 24hr cm | rain mn cm | humidity % | barometer mb |
| 20260902150053 | 12 | 358 | 0.0 | 1.6 | 0.00 | 0.00 | 0.00 | 57 | 1027.7 |
| 20260902144551 | 11 | 359 | 0.0 | 1.6 | 0.00 | 0.00 | 0.00 | 62 | 1027.7 |
| 20260902143049 | 10 | 169 | 0.0 | 3.2 | 0.00 | 0.00 | 0.00 | 59 | 1027.8 |
| 20260902141552 | 11 | 339 | 1.6 | 4.8 | 0.00 | 0.00 | 0.00 | 57 | 1027.4 |
| 20260902140046 | 12 | 296 | 0.0 | 4.8 | 0.00 | 0.00 | 0.00 | 58 | 1027.3 |
| 20260902134544 | 11 | 1 | 0.0 | 6.4 | 0.00 | 0.00 | 0.00 | 60 | 1027.2 |
| 20260902133052 | 12 | 3 | 0.0 | 3.2 | 0.00 | 0.00 | 0.00 | 58 | 1027.1 |
| 20260902131538 | 11 | 11 | 1.6 | 6.4 | 0.00 | 0.00 | 0.00 | 58 | 1026.9 |
| 20260902130035 | 12 | 295 | 0.0 | 0.0 | 0.00 | 0.00 | 0.00 | 53 | 1026.7 |
| 20260902124536 | 14 | 189 | 0.0 | 4.8 | 0.00 | 0.00 | 0.00 | 49 | 1026.5 |
| 20260902123032 | 15 | 125 | 1.6 | 8.0 | 0.00 | 0.00 | 0.00 | 51 | 1026.5 |
| 20260902121532 | 15 | 128 | 6.4 | 11.3 | 0.00 | 0.00 | 0.00 | 52 | 1026.4 |
| 20260902120037 | 15 | 134 | 3.2 | 9.7 | 0.00 | 0.00 | 0.00 | 52 | 1026.4 |
| 20260902114538 | 14 | 131 | 1.6 | 8.0 | 0.00 | 0.00 | 0.00 | 52 | 1026.6 |
| 20260902113027 | 13 | 168 | 0.0 | 6.4 | 0.00 | 0.00 | 0.00 | 48 | 1026.5 |
| 20260902111538 | 12 | 341 | 1.6 | 4.8 | 0.00 | 0.00 | 0.00 | 48 | 1026.5 |
| 20260902110048 | 11 | 39 | 0.0 | 1.6 | 0.00 | 0.00 | 0.00 | 51 | 1026.3 |
| 20260902104526 | 12 | 254 | 0.0 | 3.2 | 0.00 | 0.00 | 0.00 | 48 | 1026.2 |
| 20260902103017 | 11 | 359 | 0.0 | 1.6 | 0.00 | 0.00 | 0.00 | 50 | 1026.2 |
| 20260902101515 | 11 | 149 | 0.0 | 1.6 | 0.00 | 0.00 | 0.00 | 49 | 1026.2 |
| 20260902100011 | 12 | 297 | 0.0 | 1.6 | 0.00 | 0.00 | 0.00 | 48 | 1026.2 |
| 20260902094508 | 12 | 304 | 0.0 | 0.0 | 0.00 | 0.00 | 0.00 | 46 | 1026.1 |
| 20260902093004 | 13 | 311 | 0.0 | 0.0 | 0.00 | 0.00 | 0.00 | 44 | 1026.2 |
| 20260902091503 | 13 | 317 | 0.0 | 0.0 | 0.00 | 0.00 | 0.00 | 45 | 1026.3 |
| 20260902090059 | 14 | 304 | 1.6 | 3.2 | 0.00 | 0.00 | 0.00 | 42 | 1026.3 |
| 20260902084604 | 14 | 242 | 0.0 | 0.0 | 0.00 | 0.00 | 0.00 | 42 | 1026.2 |
| 20260902083103 | 15 | 336 | 0.0 | 3.2 | 0.00 | 0.00 | 0.00 | 40 | 1026.1 |
| 20260902081553 | 15 | 348 | 1.6 | 4.8 | 0.00 | 0.00 | 0.00 | 42 | 1026.1 |
| 20260902080107 | 15 | 350 | 0.0 | 3.2 | 0.00 | 0.00 | 0.00 | 43 | 1025.9 |
| 20260902074548 | 15 | 330 | 0.0 | 0.0 | 0.00 | 0.00 | 0.00 | 42 | 1025.9 |
| 20260902073045 | 15 | 349 | 1.6 | 3.2 | 0.00 | 0.00 | 0.00 | 42 | 1025.9 |
| 20260902071540 | 16 | 299 | 0.0 | 0.0 | 0.00 | 0.00 | 0.00 | 39 | 1025.7 |
| 20260902070036 | 17 | 295 | 0.0 | 8.0 | 0.00 | 0.00 | 0.00 | 39 | 1025.5 |
| 20260902064535 | 17 | 311 | 0.0 | 3.2 | 0.00 | 0.00 | 0.00 | 37 | 1025.5 |
| 20260902063035 | 18 | 212 | 0.0 | 4.8 | 0.00 | 0.00 | 0.00 | 34 | 1025.3 |
| 20260902061558 | 20 | 205 | 1.6 | 4.8 | 0.00 | 0.00 | 0.00 | 33 | 1025.2 |
| 20260902060036 | 20 | 162 | 3.2 | 9.7 | 0.00 | 0.00 | 0.00 | 34 | 1025.1 |
| 20260902054543 | 20 | 140 | 0.0 | 0.0 | 0.00 | 0.00 | 0.00 | 32 | 1025.0 |
| 20260902053031 | 20 | 288 | 0.0 | 0.0 | 0.00 | 0.00 | 0.00 | 31 | 1025.0 |
| 20260902051531 | 21 | 127 | 1.6 | 3.2 | 0.00 | 0.00 | 0.00 | 30 | 1024.9 |
| 20260902050030 | 21 | 58 | 0.0 | 3.2 | 0.00 | 0.00 | 0.00 | 28 | 1024.9 |
| 20260902044530 | 21 | 109 | 1.6 | 14.5 | 0.00 | 0.00 | 0.00 | 26 | 1024.8 |
| 20260902043029 | 21 | 148 | 4.8 | 9.7 | 0.00 | 0.00 | 0.00 | 26 | 1024.6 |
| 20260902041530 | 22 | 165 | 4.8 | 14.5 | 0.00 | 0.00 | 0.00 | 26 | 1024.3 |
| 20260902040029 | 22 | 161 | 8.0 | 20.9 | 0.00 | 0.00 | 0.00 | 27 | 1024.2 |
| 20260902034528 | 22 | 134 | 8.0 | 14.5 | 0.00 | 0.00 | 0.00 | 27 | 1024.0 |
| 20260902033027 | 22 | 127 | 8.0 | 14.5 | 0.00 | 0.00 | 0.00 | 25 | 1023.6 |
| 20260902031526 | 23 | 205 | 3.2 | 17.7 | 0.00 | 0.00 | 0.00 | 24 | 1023.3 |
| 20260902030025 | 23 | 152 | 11.3 | 19.3 | 0.00 | 0.00 | 0.00 | 28 | 1023.1 |
| 20260902024524 | 23 | 150 | 8.0 | 16.1 | 0.00 | 0.00 | 0.00 | 24 | 1023.0 |
| 20260902023024 | 24 | 160 | 8.0 | 17.7 | 0.00 | 0.00 | 0.00 | 22 | 1022.8 |
| 20260902021524 | 25 | 174 | 4.8 | 17.7 | 0.00 | 0.00 | 0.00 | 23 | 1022.7 |
| 20260902020023 | 25 | 155 | 8.0 | 20.9 | 0.00 | 0.00 | 0.00 | 22 | 1022.7 |
| 20260902014530 | 26 | 141 | 6.4 | 12.9 | 0.00 | 0.00 | 0.00 | 15 | 1022.7 |
| 20260902013022 | 27 | 188 | 6.4 | 11.3 | 0.00 | 0.00 | 0.00 | 13 | 1022.6 |
| 20260902011521 | 27 | 199 | 4.8 | 14.5 | 0.00 | 0.00 | 0.00 | 11 | 1022.6 |
| 20260902010034 | 28 | 219 | 3.2 | 20.9 | 0.00 | 0.00 | 0.00 | 12 | 1022.5 |
| 20260902004525 | 28 | 194 | 9.7 | 16.1 | 0.00 | 0.00 | 0.00 | 10 | 1022.5 |
| 20260902003020 | 28 | 180 | 8.0 | 17.7 | 0.00 | 0.00 | 0.00 | 9 | 1022.6 |
| 20260902001519 | 28 | 214 | 6.4 | 14.5 | 0.00 | 0.00 | 0.00 | 10 | 1022.7 |
| 20260902000024 | 28 | 278 | 8.0 | 16.1 | 0.00 | 0.00 | 0.00 | 8 | 1022.9 |
| 20260901234517 | 28 | 243 | 4.8 | 16.1 | 0.00 | 0.00 | 0.00 | 8 | 1023.0 |
| 20260901233016 | 28 | 218 | 11.3 | 25.7 | 0.00 | 0.00 | 0.00 | 8 | 1023.2 |
| 20260901231516 | 29 | 194 | 3.2 | 19.3 | 0.00 | 0.00 | 0.00 | 7 | 1023.2 |
| 20260901230032 | 29 | 233 | 8.0 | 19.3 | 0.00 | 0.00 | 0.00 | 7 | 1023.4 |
| 20260901224517 | 28 | 264 | 11.3 | 20.9 | 0.00 | 0.00 | 0.00 | 8 | 1023.3 |
| 20260901223011 | 29 | 218 | 8.0 | 24.1 | 0.00 | 0.00 | 0.00 | 8 | 1023.4 |
| 20260901221513 | 29 | 213 | 11.3 | 20.9 | 0.00 | 0.00 | 0.00 | 7 | 1023.4 |
| 20260901220010 | 28 | 269 | 9.7 | 22.5 | 0.00 | 0.00 | 0.00 | 9 | 1023.4 |
| 20260901214508 | 29 | 248 | 11.3 | 25.7 | 0.00 | 0.00 | 0.00 | 9 | 1023.4 |
| 20260901213016 | 29 | 296 | 6.4 | 24.1 | 0.00 | 0.00 | 0.00 | 11 | 1023.3 |
| 20260901211503 | 28 | 190 | 12.9 | 24.1 | 0.00 | 0.00 | 0.00 | 12 | 1023.5 |
| 20260901210100 | 28 | 205 | 16.1 | 27.4 | 0.00 | 0.00 | 0.00 | 12 | 1023.4 |
| 20260901204558 | 28 | 210 | 16.1 | 33.8 | 0.00 | 0.00 | 0.00 | 9 | 1023.5 |
| 20260901203102 | 28 | 167 | 19.3 | 33.8 | 0.00 | 0.00 | 0.00 | 11 | 1023.7 |
| 20260901201554 | 28 | 179 | 14.5 | 30.6 | 0.00 | 0.00 | 0.00 | 11 | 1023.7 |
| 20260901200054 | 28 | 200 | 14.5 | 32.2 | 0.00 | 0.00 | 0.00 | 11 | 1023.6 |
| 20260901194546 | 28 | 195 | 12.9 | 22.5 | 0.00 | 0.00 | 0.00 | 10 | 1023.7 |
| 20260901193058 | 28 | 205 | 16.1 | 27.4 | 0.00 | 0.00 | 0.00 | 10 | 1023.8 |
| 20260901191542 | 28 | 188 | 17.7 | 30.6 | 0.00 | 0.00 | 0.00 | 9 | 1023.8 |
| 20260901190037 | 28 | 139 | 1.6 | 11.3 | 0.00 | 0.00 | 0.00 | 12 | 1024.0 |
| 20260901184535 | 27 | 200 | 4.8 | 12.9 | 0.00 | 0.00 | 0.00 | 15 | 1024.2 |
| 20260901183030 | 26 | 72 | 3.2 | 11.3 | 0.00 | 0.00 | 0.00 | 16 | 1024.1 |
| 20260901181526 | 26 | 236 | 4.8 | 9.7 | 0.00 | 0.00 | 0.00 | 21 | 1024.3 |
| 20260901180023 | 25 | 217 | 4.8 | 9.7 | 0.00 | 0.00 | 0.00 | 22 | 1024.5 |
| 20260901174520 | 24 | 218 | 4.8 | 11.3 | 0.00 | 0.00 | 0.00 | 25 | 1024.5 |
| 20260901173016 | 23 | 236 | 4.8 | 9.7 | 0.00 | 0.00 | 0.00 | 31 | 1024.6 |
| 20260901171520 | 23 | 209 | 3.2 | 9.7 | 0.00 | 0.00 | 0.00 | 31 | 1024.6 |
| 20260901170010 | 22 | 191 | 1.6 | 8.0 | 0.00 | 0.00 | 0.00 | 30 | 1024.7 |
| 20260901164510 | 21 | 229 | 3.2 | 8.0 | 0.00 | 0.00 | 0.00 | 32 | 1024.7 |
| 20260901163004 | 21 | 161 | 1.6 | 8.0 | 0.00 | 0.00 | 0.00 | 33 | 1024.7 |
| 20260901161504 | 20 | 145 | 1.6 | 8.0 | 0.00 | 0.00 | 0.00 | 33 | 1024.7 |
| 20260901160002 | 20 | 208 | 3.2 | 8.0 | 0.00 | 0.00 | 0.00 | 34 | 1024.9 |
| 20260901154505 | 20 | 11 | 0.0 | 1.6 | 0.00 | 0.00 | 0.00 | 30 | 1025.0 |
| 20260901153108 | 19 | 335 | 0.0 | 8.0 | 0.00 | 0.00 | 0.00 | 33 | 1025.0 |
| 20260901151558 | 17 | 356 | 0.0 | 0.0 | 0.00 | 0.00 | 0.00 | 38 | 1024.9 |